This is the latest recevied weather packets stored in our database for station/object W1CAT. If no packets are shown the sender has not sent any weather packets the latest 10 day(s).
| Time | Temp. | Humidity | Pressure | Rain* | Wind** | Luminosity | Snow |
|---|---|---|---|---|---|---|---|
| 1788578019 | 13.33° C | 83% | - | 0 mm | - | - | - |
| 1788577714 | 13.33° C | 82% | - | 0 mm | - | - | - |
| 1788577410 | 13.33° C | 79% | - | 0 mm | - | - | - |
| 1788577109 | 13.89° C | 78% | - | 0 mm | - | - | - |
| 1788576804 | 14.44° C | 76% | - | 0 mm | - | - | - |
| 1788576500 | 15° C | 75% | - | 0 mm | - | - | - |
| 1788576195 | 15.56° C | 71% | - | 0 mm | - | - | - |
| 1788575885 | 15.56° C | 67% | - | 0 mm | - | - | - |
| 1788575581 | 15° C | 72% | - | 0 mm | - | - | - |
| 1788575279 | 14.44° C | 77% | - | 0 mm | - | - | - |
| 1788574975 | 14.44° C | 78% | - | 0 mm | - | - | - |
| 1788574674 | 15° C | 77% | - | 0 mm | - | - | - |
| 1788574369 | 15° C | 77% | - | 0 mm | - | - | - |
| 1788574064 | 15.56° C | 76% | - | 0 mm | - | - | - |
| 1788573760 | 16.11° C | 74% | - | 0 mm | - | - | - |
| 1788573458 | 16.67° C | 71% | - | 0 mm | - | - | - |
| 1788573152 | 17.22° C | 70% | - | 0 mm | - | - | - |
| 1788572851 | 17.22° C | 69% | - | 0 mm | - | - | - |
| 1788572547 | 16.67° C | 76% | - | 0 mm | - | - | - |
| 1788572242 | 17.22° C | 71% | - | 0 mm | - | - | - |
| 1788571938 | 17.78° C | 71% | - | 0 mm | - | - | - |
| 1788571634 | 18.33° C | 66% | - | 0 mm | - | - | - |
| 1788571329 | 18.89° C | 65% | - | 0 mm | - | - | - |
| 1788571026 | 19.44° C | 63% | - | 0 mm | - | - | - |
| 1788570721 | 19.44° C | 56% | - | 0 mm | - | - | - |
* Rain latest hour (hover to see other rain measurements)
** Current wind speed in m/s (hover to see current wind gust speed)